Wind_Speed
28 26 23 20 20 20 20 21 20 20 21 20 18 17 16 15 15 14 15 14 13 13 11 11 11 10 9 9 9 9 9 9 9 9 9 9 9 9 9 10 10 8 9 9 8 9 11 11 12 12 12 11 10 11 12 11 11 12 10 8 8 9 10 11 12 10 9 8 8 11 14 13 13 13 13 13 13 13 13 13 15 17 15 14 14
25 25 23 20 19 21 22 24 22 20 20 20 18 18 17 15 15 15 14 14 13 13 11 11 10 10 9 9 9 9 9 9 10 9 9 9 9 9 9 10 9 8 8 8 9 9 9 11 12 12 12 11 11 12 13 12 12 12 10 9 10 12 13 11 15 13 10 10 9 10 13 13 13 14 14 14 14 15 15 15 15 16 14 14 15
21 20 21 20 19 22 25 25 23 20 21 21 19 18 18 16 15 15 14 14 14 13 12 11 10 10 9 8 7 8 8 8 8 9 9 9 9 9 8 9 9 8 8 8 9 9 9 11 12 12 11 11 12 13 12 12 13 11 11 10 11 14 13 9 15 17 12 11 11 11 13 12 12 14 15 15 15 15 15 15 15 14 13 13 14
19 19 20 21 20 23 25 23 22 22 23 22 20 19 18 17 15 14 14 14 14 13 12 11 10 10 9 8 7 7 7 7 6 7 7 7 8 8 7 8 8 8 8 8 9 9 9 10 11 13 12 11 12 14 13 13 13 11 11 10 11 13 10 5 9 16 15 13 12 12 14 14 12 12 14 15 15 14 14 14 14 14 13 13 12
21 21 22 23 22 23 23 22 24 26 24 22 21 20 19 17 15 14 14 14 13 13 13 12 11 10 9 8 7 6 6 6 6 6 6 5 6 7 7 7 7 8 8 9 9 9 9 10 9 11 13 12 13 14 14 13 12 11 12 11 11 12 9 5 6 10 12 14 14 13 13 15 13 12 13 14 14 14 13 13 13 13 13 12 11
24 26 26 26 23 22 23 24 23 24 23 21 20 20 18 17 15 13 13 13 13 13 13 12 11 11 10 9 7 6 6 6 6 6 6 5 6 7 7 7 7 8 8 8 8 8 9 10 9 10 12 12 13 14 13 13 12 11 13 13 12 12 11 9 8 8 8 9 13 13 11 11 12 12 12 13 13 13 13 12 12 12 12 11 9
24 28 30 29 25 23 24 24 21 21 21 19 18 17 16 15 15 14 13 13 13 12 12 11 10 10 10 9 7 6 6 6 6 6 6 7 6 6 6 6 7 8 9 8 8 8 8 8 8 10 11 11 13 14 13 12 12 11 12 12 13 14 14 12 11 10 9 9 10 11 11 11 12 12 12 13 13 13 12 12 12 12 13 13 11
28 27 27 27 25 23 23 22 19 20 20 19 18 18 16 15 15 14 13 13 12 12 11 11 9 9 9 8 7 6 6 5 5 4 5 7 8 6 5 6 7 8 8 8 8 7 7 7 7 8 9 10 12 13 12 12 12 11 11 12 12 11 13 12 12 12 12 12 12 10 10 12 13 12 12 13 14 14 14 13 13 12 13 15 16
27 26 24 24 25 24 23 21 18 17 18 18 18 19 18 16 14 13 13 12 11 11 10 10 9 8 8 7 6 6 4 4 6 4 2 3 7 7 7 7 7 8 8 7 8 7 7 7 5 4 6 7 10 11 12 13 12 10 10 11 11 9 9 11 12 12 12 12 13 12 12 12 13 14 14 13 14 14 13 14 14 13 14 14 14
24 23 21 21 24 26 25 22 18 15 16 16 16 17 17 16 13 13 12 11 11 11 10 9 8 8 8 8 7 5 5 6 8 7 3 4 4 6 8 8 7 8 9 9 8 8 8 7 6 5 5 6 7 9 10 12 12 10 9 9 11 10 10 11 12 13 13 13 13 13 13 14 14 14 14 14 14 13 12 13 14 15 15 14 14
22 21 20 20 22 23 22 21 18 15 14 15 16 16 15 13 12 12 12 11 11 11 10 10 9 8 9 8 7 5 5 6 8 8 6 6 3 2 5 7 6 7 9 9 9 8 8 8 6 6 6 6 5 7 8 9 13 12 9 9 11 10 10 10 12 13 13 13 13 13 13 14 14 14 14 14 15 15 14 15 16 16 15 14 15
19 18 18 20 21 20 18 17 17 16 15 16 19 19 18 15 13 11 11 10 10 10 10 10 9 9 9 8 7 7 7 7 8 8 8 8 5 2 3 6 6 5 6 8 8 9 9 9 7 5 6 7 5 5 5 6 9 11 10 10 12 12 12 11 12 12 12 12 13 14 14 13 13 13 13 13 14 15 15 16 16 16 17 16 16
24 22 20 20 20 19 18 18 19 20 19 20 21 22 21 20 17 15 13 11 9 8 8 9 10 9 9 8 8 8 8 8 8 9 8 8 8 6 5 6 6 5 5 6 7 7 7 9 8 6 6 7 6 6 6 6 7 8 9 10 11 13 14 15 15 15 14 13 13 13 14 13 13 13 13 13 14 14 15 16 16 16 17 18 19
23 22 21 20 18 18 21 22 20 20 21 22 23 22 21 20 18 17 16 14 13 12 11 11 10 8 8 10 10 9 9 9 9 10 9 8 8 7 5 4 6 5 4 5 5 4 4 5 6 6 6 5 6 7 7 7 7 7 8 9 10 12 13 15 17 18 18 17 16 15 13 12 13 13 12 12 14 15 15 14 15 17 17 18 17
21 20 20 21 20 19 21 22 21 20 21 21 22 22 20 19 18 16 15 15 15 14 12 11 9 8 9 11 12 12 10 10 10 10 10 9 9 7 4 3 5 5 4 4 4 4 4 4 5 5 5 5 7 9 8 6 6 6 8 9 10 12 13 14 16 17 17 17 18 18 16 15 15 15 13 13 13 14 14 14 15 16 16 15 13
23 22 21 22 23 22 23 24 23 23 22 22 22 21 19 18 18 15 13 13 13 13 13 12 10 8 9 12 13 12 11 10 10 10 10 10 9 7 5 5 6 6 5 4 5 4 4 4 4 4 2 3 6 8 9 9 8 8 10 11 11 13 13 14 16 17 17 17 17 18 17 18 19 18 16 15 13 12 13 15 16 16 16 18 17
25 26 25 24 24 24 24 25 24 23 23 22 21 20 18 17 16 15 14 14 14 14 14 13 12 10 8 9 11 11 10 9 8 8 9 9 7 4 4 6 5 5 5 5 4 4 4 4 4 2 2 4 6 8 9 11 11 10 11 13 13 14 14 13 13 15 17 19 19 20 21 22 23 23 22 21 20 19 17 17 17 18 18 17 17
25 26 24 22 22 22 22 23 22 21 21 20 19 18 17 15 14 14 15 15 15 15 13 14 15 13 10 9 9 9 9 8 6 6 6 6 5 2 1 4 4 4 4 4 3 4 5 5 4 3 4 6 8 9 10 11 11 10 10 13 14 15 15 13 12 12 15 18 21 22 23 24 25 27 28 28 28 28 26 23 22 22 20 18 20
23 22 21 20 20 20 21 21 20 18 17 17 17 16 15 14 13 13 13 13 13 14 13 12 13 13 12 11 9 7 6 6 5 5 4 4 4 2 4 3 2 2 2 2 2 3 5 4 5 5 6 7 8 9 10 10 10 10 10 11 13 13 12 12 13 14 16 19 22 23 24 26 26 28 30 32 34 35 33 30 27 23 21 22 24
20 19 18 18 18 19 19 19 19 17 15 15 15 14 14 14 13 12 11 11 11 11 9 9 10 10 10 9 8 6 4 3 2 2 2 1 3 3 5 5 3 3 4 2 2 2 3 3 3 5 5 6 7 8 9 10 11 12 11 10 10 11 12 13 15 15 15 17 22 25 28 30 28 26 26 28 32 36 38 37 33 28 25 23 22
16 15 15 16 16 17 16 16 16 16 14 12 11 11 12 12 12 10 9 9 8 8 7 7 7 7 5 4 4 3 2 1 3 4 4 4 2 2 3 4 3 5 6 5 4 4 2 2 1 4 5 6 8 10 12 13 14 15 15 13 13 15 17 18 19 19 17 17 19 22 26 27 27 26 25 24 26 31 35 37 36 34 30 25 22
13 13 13 14 15 15 15 14 13 13 13 12 10 8 8 9 8 7 7 6 6 5 5 5 4 4 3 2 2 3 2 3 5 6 6 6 4 1 1 3 4 5 6 6 6 6 5 6 5 8 10 10 12 14 16 17 18 19 19 18 19 19 20 20 21 22 19 17 18 20 22 23 25 28 29 28 26 27 29 30 31 33 32 29 26
13 13 13 13 14 14 14 13 12 11 11 10 8 7 6 6 6 5 4 5 5 4 4 4 4 4 4 3 3 4 3 5 8 9 8 7 6 4 3 4 4 3 4 5 7 8 8 8 11 15 17 18 19 20 21 21 21 21 21 21 21 21 21 22 21 20 18 17 19 20 21 23 24 25 27 28 28 28 28 26 25 26 27 28 28
12 13 13 13 13 12 12 12 11 10 9 8 6 6 5 5 5 4 3 3 4 4 4 3 4 4 4 4 4 4 3 3 8 11 10 10 10 8 7 6 5 4 3 4 6 8 10 13 16 18 19 20 21 22 21 21 21 22 22 22 22 22 23 23 23 20 18 17 18 19 21 23 24 26 27 27 28 27 24 21 19 17 16 18 19
12 12 12 12 12 11 10 10 10 9 8 7 6 5 4 4 4 3 3 3 3 3 3 3 3 3 4 4 5 5 5 4 5 10 12 12 12 12 11 10 8 7 5 2 4 5 8 12 15 16 16 16 17 19 19 18 18 18 18 18 19 20 22 22 23 21 18 17 18 19 21 22 23 25 26 26 28 26 17 13 14 12 11 13 13
12 11 11 11 11 10 9 9 9 8 7 7 7 6 4 4 4 3 3 3 3 3 2 2 3 3 3 4 4 4 5 6 6 9 10 11 11 11 11 11 11 10 7 3 4 6 9 12 15 14 13 12 13 14 14 14 14 15 15 13 14 15 16 16 15 15 15 16 17 17 19 19 19 21 20 18 18 17 12 9 10 10 11 11 11
11 11 10 10 10 10 10 9 7 7 8 7 7 7 7 6 6 6 6 5 3 3 3 3 4 4 3 3 3 3 6 8 9 9 9 9 9 9 9 9 10 10 8 5 6 8 11 14 15 13 10 11 11 11 11 12 12 13 13 12 11 11 12 13 14 14 15 16 17 17 18 18 18 19 17 13 11 12 11 10 9 10 10 9 7
11 11 10 10 9 9 9 9 7 7 8 9 9 9 9 8 8 9 9 8 7 6 6 6 6 6 5 5 3 1 6 11 11 9 9 9 9 8 8 8 8 8 7 7 8 10 11 12 12 11 10 10 10 10 11 11 11 11 11 11 11 11 12 15 17 18 17 17 18 19 19 19 18 17 17 16 15 14 12 10 9 8 9 10 8
10 11 11 11 10 9 9 9 8 7 7 8 10 11 11 10 9 8 8 8 7 7 7 8 8 7 7 7 6 4 5 10 10 8 7 8 8 8 8 8 7 7 7 8 9 9 8 8 8 8 8 8 8 8 9 9 9 10 10 11 12 13 14 15 16 16 15 15 16 17 17 18 17 16 16 17 16 14 12 11 10 8 9 10 9
8 9 10 10 10 10 9 8 8 7 6 5 7 9 10 12 11 9 8 9 9 8 7 7 7 7 6 7 8 7 7 7 7 6 7 7 7 8 8 8 8 8 8 7 7 6 6 6 6 7 7 7 8 9 9 10 10 10 10 11 11 12 13 14 15 15 14 12 12 14 17 18 17 16 16 16 14 13 11 10 10 9 9 10 10
8 8 8 8 9 9 8 8 8 7 6 5 3 4 7 10 12 12 12 12 12 12 11 9 8 7 7 7 6 6 6 6 6 7 7 6 7 7 6 6 8 9 10 8 6 5 6 6 7 8 8 8 8 9 10 10 11 12 12 12 12 13 13 14 14 14 13 12 11 12 15 17 17 15 15 15 14 11 9 11 12 10 9 10 10
9 9 9 8 8 8 8 8 8 7 5 5 4 3 3 5 8 9 10 10 11 12 13 13 11 10 10 9 6 5 7 7 8 8 7 7 7 6 6 7 9 10 11 9 6 5 6 7 7 8 9 9 10 10 11 11 12 13 13 14 14 14 14 14 14 13 13 13 13 13 14 16 15 13 13 15 13 9 7 9 11 11 9 9 10
10 12 11 10 8 8 9 8 8 8 7 6 5 6 6 4 4 4 4 4 6 9 11 13 13 12 12 11 9 8 8 8 8 9 9 8 8 6 6 6 7 9 11 9 6 6 7 7 8 9 9 10 11 11 11 12 12 13 13 14 15 15 15 15 15 14 13 14 14 14 15 15 14 12 13 12 10 8 8 8 10 11 10 11 12
8 10 11 11 10 8 8 9 9 8 7 6 6 6 6 6 6 5 3 2 2 3 5 8 12 14 15 13 9 8 9 9 8 8 9 9 7 7 9 7 3 4 7 7 7 8 10 10 10 10 10 10 11 11 12 12 12 12 13 13 13 14 15 15 15 14 14 13 13 13 13 13 12 11 11 10 7 7 7 8 9 10 11 12 13
5 6 7 9 9 8 8 8 8 7 6 5 5 5 5 4 5 6 5 4 3 1 3 5 7 11 13 13 11 8 8 8 7 8 9 9 8 9 11 10 6 4 5 6 8 9 10 11 11 11 11 11 11 11 11 12 12 12 13 14 13 13 13 14 13 13 13 12 12 13 12 11 9 9 9 7 6 6 6 7 7 7 9 10 10
4 5 5 6 7 7 7 7 8 8 6 5 5 4 4 4 4 5 5 5 6 5 1 4 5 6 8 12 13 11 8 8 8 9 10 10 10 11 11 10 9 8 7 8 9 9 9 10 10 10 11 11 11 11 11 12 12 12 12 13 13 12 12 12 12 12 11 10 10 10 9 8 6 5 4 2 2 3 4 6 7 7 8 8 9
4 3 4 5 6 6 4 3 5 6 4 3 2 2 3 3 4 5 5 4 5 6 4 4 4 3 4 9 12 11 8 5 6 7 8 9 9 10 9 8 8 9 8 9 9 9 9 10 10 10 10 10 10 11 11 11 11 11 12 12 12 12 11 10 10 10 8 7 7 7 6 5 4 3 5 7 9 8 9 9 9 9 8 7 6
3 2 4 7 8 8 5 2 2 3 2 3 3 2 3 3 4 4 5 4 4 5 5 5 5 4 4 6 8 8 7 6 3 3 6 8 8 8 7 7 8 8 8 9 9 9 9 9 10 10 10 10 10 10 11 11 11 11 11 11 11 10 8 8 8 7 6 6 6 6 5 6 7 8 10 11 12 11 11 10 9 8 7 6 5
4 2 2 5 6 8 7 4 1 2 2 3 3 2 2 3 4 4 4 4 3 4 5 4 4 5 6 8 8 7 7 6 4 4 5 7 7 7 7 7 7 7 8 8 8 8 9 9 10 10 10 10 10 11 11 11 11 11 10 10 10 8 8 8 7 7 6 6 6 7 8 9 10 10 11 11 12 11 10 9 8 7 5 4 4
5 5 2 2 3 5 5 4 3 2 2 2 2 2 2 2 3 3 3 3 2 2 2 3 2 3 6 7 6 5 6 5 4 5 5 5 5 6 6 6 6 7 7 8 8 8 9 9 9 10 10 10 11 11 11 11 11 10 10 9 9 8 8 7 6 7 8 8 8 10 12 12 12 12 12 11 10 9 9 8 6 6 5 5 4
5 6 5 2 3 4 5 4 2 1 1 3 3 2 1 1 2 3 2 1 1 1 0 1 0 2 5 5 4 4 6 5 3 4 4 4 5 5 5 6 6 6 7 8 8 8 9 10 10 10 10 10 11 11 12 11 10 9 9 9 9 8 8 8 8 9 9 9 9 10 11 10 10 11 11 10 8 7 6 5 4 4 3 3 2
5 5 5 5 5 5 5 4 2 1 3 4 4 2 2 2 1 2 2 1 1 0 1 1 1 2 4 4 3 3 4 3 4 4 5 5 5 6 6 6 6 6 7 7 8 8 9 10 10 10 10 11 11 11 11 12 11 10 9 9 9 9 9 9 9 9 9 10 10 9 9 9 9 9 9 8 7 6 6 5 4 3 3 3 2
6 6 4 4 5 5 4 5 4 3 1 0 1 1 2 2 1 1 1 1 1 0 1 1 1 2 4 5 4 4 4 5 5 5 5 5 6 6 6 6 6 6 6 7 7 7 8 9 9 9 9 9 10 10 9 9 10 10 9 9 9 9 9 8 8 8 8 8 8 8 8 7 7 7 6 6 6 6 6 5 5 4 4 4 3
6 6 4 3 4 5 4 4 4 1 2 2 1 1 1 2 2 2 2 1 0 1 1 1 1 2 3 4 5 5 5 5 6 6 6 6 6 6 6 6 6 6 6 6 6 7 8 8 8 8 8 7 8 9 8 7 8 8 8 8 9 9 9 9 8 8 7 7 7 7 7 6 6 6 6 6 6 6 5 5 5 4 4 4 4
5 5 5 4 4 5 4 3 2 1 1 1 3 3 3 2 2 2 2 1 0 1 1 2 2 3 3 4 4 5 5 6 6 6 6 6 6 6 6 6 6 7 7 7 7 7 7 7 7 8 8 7 7 8 9 8 8 8 8 9 9 9 9 8 8 8 8 7 7 7 6 6 6 6 6 6 6 6 6 5 5 4 5 5 5
2 3 5 4 4 5 4 3 4 4 4 2 2 3 2 2 2 2 2 1 0 1 2 2 3 3 4 4 4 5 5 6 6 6 6 6 6 6 6 6 6 6 6 7 7 8 7 7 6 6 7 7 6 7 7 8 8 8 8 8 8 7 7 7 6 6 7 7 7 6 6 6 6 6 6 6 5 5 5 4 4 4 5 5 5
2 3 5 5 4 5 5 4 3 5 5 3 3 3 2 2 2 2 1 0 2 2 2 2 3 3 3 4 4 4 5 5 5 5 5 5 5 5 5 5 5 5 5 5 6 6 6 6 6 6 5 6 6 6 6 6 6 7 7 7 5 6 7 6 6 5 6 7 7 7 6 6 6 6 7 6 5 5 5 4 5 5 5 6 6
3 4 5 5 4 5 6 4 3 4 3 1 1 1 2 2 3 2 1 2 2 3 2 2 2 2 2 3 3 3 3 4 4 3 3 4 4 4 4 5 4 4 4 5 5 5 5 5 5 5 5 5 5 5 5 5 6 6 5 5 5 5 6 7 6 5 5 6 6 6 6 6 6 6 7 7 7 7 7 6 7 7 7 7 6
6 6 6 5 5 6 6 5 5 5 2 1 1 3 3 3 3 3 3 3 2 2 2 2 2 2 2 2 2 2 3 3 2 2 2 2 3 3 4 4 5 4 4 4 5 5 5 5 5 5 5 6 6 6 5 5 4 4 4 4 5 5 5 6 6 5 5 5 5 5 6 6 5 6 7 7 7 7 7 7 7 7 7 7 6
8 7 7 6 6 6 5 5 6 4 1 3 2 3 4 3 4 3 3 3 3 3 3 2 3 3 2 2 2 2 2 2 2 2 2 2 2 2 2 3 4 4 4 4 4 4 4 5 5 6 6 6 6 6 5 4 4 4 4 5 5 5 5 6 6 5 6 6 6 6 6 6 6 6 6 6 6 6 6 7 7 7 6 6 6
8 6 6 6 6 6 5 5 6 5 2 3 3 4 4 4 4 4 4 3 3 3 3 3 3 3 2 2 2 2 2 2 2 1 1 1 1 1 2 2 2 3 3 3 4 4 4 4 5 5 5 6 6 6 6 5 6 6 5 5 5 5 5 5 5 5 6 7 6 5 5 6 7 8 7 7 6 6 6 6 6 6 5 5 5
Wind_Direction
163 166 169 167 161 163 165 164 171 179 181 179 171 168 168 164 161 159 159 161 161 163 166 169 173 179 187 191 194 199 201 201 202 202 203 204 204 202 202 205 206 202 199 197 191 194 199 197 193 190 189 187 183 186 185 179 180 187 194 193 171 175 194 180 152 147 157 166 170 165 167 173 177 181 179 181 195 198 192 203 216 220 227 232 232
164 162 161 157 154 160 165 168 175 179 177 172 167 166 166 164 163 162 162 163 163 166 168 169 176 182 187 193 196 201 203 202 201 202 205 206 203 199 201 206 205 203 205 203 199 197 196 197 193 190 192 186 182 192 185 175 186 190 186 185 171 181 206 185 150 149 158 169 186 177 168 180 190 187 187 187 195 203 201 205 215 217 218 221 228
163 158 154 149 154 166 167 168 175 176 173 170 168 167 167 167 165 163 162 161 162 166 166 167 177 181 184 191 197 200 205 205 201 201 205 205 200 196 195 199 201 202 205 206 204 201 198 199 191 186 193 187 184 193 183 178 194 190 179 182 169 180 216 206 152 154 166 175 190 189 174 188 205 195 192 196 196 201 205 207 213 214 215 219 227
154 151 151 148 153 163 164 166 175 177 173 172 171 170 168 166 165 163 161 161 162 163 164 169 175 177 181 189 190 193 198 199 199 200 204 208 206 201 196 195 196 199 202 202 201 201 202 204 192 184 189 186 186 190 181 186 202 190 177 181 170 176 212 233 162 162 170 175 191 202 184 182 209 212 197 197 201 205 211 213 216 219 220 225 229
151 147 151 151 154 160 167 178 185 178 172 172 170 168 167 165 163 162 161 162 162 162 165 171 175 177 182 187 184 186 191 191 192 191 190 199 205 202 198 196 193 193 199 199 194 192 194 199 196 188 190 188 187 189 185 191 202 187 178 185 177 176 194 218 189 176 180 178 184 210 203 181 196 219 210 202 201 205 215 220 222 225 226 231 232
150 149 152 154 158 165 175 188 189 175 169 171 168 165 164 161 160 163 165 164 163 165 169 173 177 179 181 184 184 186 189 187 184 183 179 178 186 191 192 195 191 190 196 194 186 182 183 188 190 189 194 193 190 191 188 192 202 191 184 191 185 175 183 204 208 205 219 205 183 196 212 199 197 209 215 215 211 209 214 220 229 234 234 237 233
155 156 156 156 159 164 171 177 176 166 165 167 164 161 160 159 163 170 170 166 165 169 171 173 179 180 178 183 186 184 191 196 191 189 186 176 171 177 185 189 185 184 192 190 183 184 182 180 182 186 196 198 193 196 195 194 205 201 189 201 200 178 175 197 212 208 221 236 216 200 203 210 212 213 217 221 219 222 224 225 230 231 229 233 231
157 154 151 151 153 155 158 159 157 157 161 164 162 160 160 165 172 172 168 165 167 171 171 170 177 178 176 184 188 180 184 184 170 179 197 188 179 179 185 189 180 179 192 194 186 192 191 180 180 183 189 192 188 195 202 200 208 211 200 210 219 191 176 194 215 217 213 221 232 229 216 212 214 219 228 229 225 227 230 236 241 237 232 231 225
151 149 147 147 147 148 150 148 143 144 155 164 166 163 165 171 175 170 165 165 167 168 166 166 172 170 168 176 176 164 151 140 149 162 175 171 179 190 197 201 194 185 191 192 185 196 201 190 190 180 171 181 182 186 201 206 209 216 213 217 227 217 201 205 214 222 223 219 222 229 228 223 217 218 226 232 235 236 234 239 249 249 249 247 229
142 144 141 137 141 148 152 149 139 131 140 153 160 163 167 171 168 164 163 163 163 163 160 160 164 161 162 165 155 140 133 144 165 176 150 127 165 195 196 201 210 204 205 208 202 208 213 203 212 226 201 193 192 191 200 208 209 217 223 220 222 224 225 226 225 227 231 230 227 226 227 229 228 226 224 226 236 244 241 243 251 252 251 255 248
139 142 140 134 137 143 147 148 143 132 129 133 139 148 155 159 161 161 158 155 153 154 154 156 156 154 152 146 142 156 165 160 174 185 176 164 158 161 184 195 210 213 214 219 218 220 225 217 219 235 225 208 203 201 200 202 207 217 224 213 212 224 232 236 240 239 238 238 236 233 233 235 236 235 233 230 234 238 239 245 251 253 252 252 255
113 120 127 129 128 130 133 138 140 137 131 128 131 136 136 131 128 131 135 141 147 153 157 154 145 136 126 123 142 177 182 173 182 190 190 193 183 143 183 200 205 218 218 219 221 218 217 215 208 208 208 198 196 204 206 205 210 220 227 220 219 230 242 252 259 259 257 257 252 247 245 246 245 242 242 245 245 242 243 246 247 250 254 252 251
93 93 99 107 112 119 126 131 136 138 137 135 135 136 133 123 116 112 113 116 120 127 136 136 130 121 112 123 150 172 176 179 186 186 188 194 185 181 216 218 207 219 221 218 230 226 210 206 203 195 194 195 202 215 221 228 233 235 239 240 239 241 245 253 260 265 273 277 273 264 260 261 260 256 253 254 257 258 252 248 248 251 254 253 254
86 84 88 94 97 107 120 126 128 130 134 137 137 136 134 129 125 123 120 116 108 101 102 106 112 114 119 136 149 152 159 170 176 179 182 186 183 193 228 226 203 215 217 211 232 238 216 208 206 204 203 203 214 222 225 231 240 247 250 252 254 255 253 254 256 260 266 272 276 277 277 276 274 270 266 261 258 256 252 249 252 253 253 255 258
74 75 81 89 92 97 107 113 114 116 124 131 131 129 129 130 130 131 129 122 115 112 113 110 110 117 131 141 142 138 142 151 159 168 176 178 180 186 202 206 204 211 208 202 210 213 216 223 227 229 219 202 211 217 222 236 248 256 262 259 255 257 257 256 256 256 258 262 267 271 273 274 274 272 272 269 258 249 251 256 258 260 261 260 257
68 71 74 80 87 93 100 104 105 107 112 116 119 121 123 126 130 138 145 141 134 130 125 122 119 120 131 140 140 135 136 142 149 155 160 162 165 175 197 207 209 207 197 196 208 205 201 212 230 239 211 184 211 218 221 239 256 264 266 262 260 259 255 254 256 256 256 259 260 262 263 262 263 265 265 264 256 247 253 260 258 256 257 257 254
63 68 70 73 80 88 96 99 100 103 106 107 110 115 121 124 129 141 150 151 148 141 132 128 128 120 120 134 137 133 131 134 140 147 153 155 147 155 211 211 205 207 203 205 217 208 195 203 218 234 218 217 235 240 238 245 255 262 265 265 265 264 261 262 265 258 253 255 257 258 259 259 261 263 262 260 258 257 259 259 256 254 254 257 261
55 63 67 70 74 79 86 91 93 94 97 97 98 104 110 113 121 133 138 137 140 142 138 134 134 131 127 128 127 128 129 126 127 139 153 162 146 95 283 229 211 209 211 214 221 205 203 219 230 235 245 243 246 252 254 257 260 266 272 272 270 269 270 272 276 270 260 261 263 263 262 262 263 263 262 259 258 257 256 253 252 255 256 258 265
48 57 64 70 75 79 84 89 91 89 91 96 99 99 99 101 108 118 121 121 125 132 132 128 128 131 131 124 111 108 120 123 124 126 130 151 154 103 5 313 227 220 249 238 219 193 200 236 258 254 254 255 255 259 262 264 263 265 274 281 279 279 280 278 282 288 281 274 273 273 272 272 272 272 269 264 260 257 254 252 250 252 251 249 254
46 53 60 68 75 78 80 87 90 87 86 93 100 104 104 105 107 105 106 111 114 117 121 122 122 123 125 124 114 102 105 113 103 92 70 82 136 98 27 6 14 15 348 322 306 248 205 205 242 255 259 260 265 276 280 281 279 275 280 291 291 288 289 288 291 296 291 279 276 276 276 276 277 278 277 273 268 262 257 254 250 248 250 252 252
50 52 54 58 66 69 71 78 85 85 82 80 83 95 105 108 108 104 107 116 120 120 122 123 124 123 122 127 119 96 72 358 346 341 338 338 349 81 43 357 353 2 350 337 328 321 352 85 221 262 276 281 283 290 294 295 296 291 289 292 290 288 290 290 290 293 293 287 278 272 270 270 270 270 270 271 272 268 262 258 253 247 248 252 258
53 56 58 58 59 60 60 64 70 75 81 79 69 71 88 95 96 98 106 119 130 138 139 136 138 137 129 115 88 62 33 13 3 354 350 349 344 355 324 293 300 335 338 332 328 325 350 16 329 285 286 293 294 297 298 298 297 294 291 290 288 287 288 288 286 287 288 285 276 268 264 262 261 262 263 262 260 261 262 262 257 252 248 246 250
52 55 58 58 58 56 55 57 59 62 72 78 70 67 77 83 87 95 112 134 144 147 150 158 161 150 132 108 90 85 72 42 26 18 15 15 12 10 346 319 311 314 305 299 299 295 297 304 291 281 282 288 291 294 296 295 295 293 291 290 290 290 290 289 287 285 281 275 271 268 264 261 260 261 262 259 256 257 258 257 256 255 251 245 247
49 50 52 55 57 57 55 55 56 57 61 66 66 67 72 80 90 100 117 141 150 150 150 159 161 147 132 120 106 104 111 66 29 27 31 34 31 29 23 11 358 342 314 292 288 284 280 279 278 281 285 288 289 293 295 295 296 296 295 295 294 292 290 290 290 288 281 273 268 265 262 263 263 264 263 261 260 261 258 249 246 247 241 239 244
49 49 52 52 52 56 59 59 58 58 59 64 66 63 68 83 94 106 121 130 142 145 143 147 151 138 124 123 116 106 117 122 59 37 34 33 30 27 26 25 20 15 11 319 270 277 279 281 286 293 298 297 296 298 300 300 300 299 298 296 293 289 288 288 288 285 278 271 267 266 265 264 263 262 263 264 264 262 253 234 229 224 214 222 233
49 49 52 53 51 51 53 54 58 58 55 62 66 59 57 70 78 85 96 102 106 102 97 100 102 100 96 98 99 102 114 117 88 53 35 24 19 17 15 17 18 15 13 357 319 319 314 308 309 312 310 309 307 305 306 309 307 304 301 294 288 288 285 281 280 280 276 273 272 272 272 272 272 271 271 271 266 255 231 207 208 200 196 213 222
46 47 48 49 50 49 44 41 48 57 55 52 53 49 47 48 51 49 42 36 48 70 76 77 76 74 78 83 90 120 116 91 64 43 29 18 10 6 5 7 9 4 357 346 332 322 311 308 312 315 313 310 307 300 298 299 295 291 288 283 279 280 276 273 279 286 286 284 284 286 289 289 288 285 282 280 272 254 232 218 214 201 192 195 185
38 41 43 43 43 45 45 39 40 55 62 57 50 43 38 41 48 46 34 26 25 29 36 49 51 40 39 47 43 113 98 69 45 24 17 13 10 9 6 0 357 349 334 318 311 310 308 308 311 313 308 302 298 291 286 284 279 277 284 288 286 285 284 282 283 285 286 286 285 288 292 293 290 287 283 277 272 267 256 242 231 208 180 172 170
39 37 38 36 31 31 38 39 37 45 62 72 71 60 46 43 51 51 43 44 47 40 37 41 37 23 22 34 32 31 54 48 34 22 18 13 9 10 4 354 352 346 333 324 325 328 323 310 305 309 311 310 315 316 311 311 307 302 307 311 304 297 296 293 288 287 289 291 291 291 292 292 289 287 284 278 273 270 259 243 235 222 193 185 191
47 46 42 35 27 25 30 34 32 31 40 64 91 90 72 58 56 58 58 58 55 50 47 47 44 34 31 38 36 30 33 35 32 33 30 18 10 8 3 1 6 4 358 354 345 332 320 310 314 331 336 332 335 334 329 326 322 315 313 313 307 302 302 298 295 295 295 292 291 293 295 295 292 288 281 274 271 270 257 232 219 213 195 180 174
32 40 41 36 28 25 30 32 27 25 28 33 57 108 104 82 67 58 55 53 51 47 43 42 46 52 56 57 42 23 30 48 50 43 38 27 17 14 15 24 27 19 16 18 7 341 336 343 346 346 342 336 334 332 327 323 321 318 315 311 308 307 306 303 303 305 304 300 295 290 288 287 286 285 282 273 264 257 241 216 202 192 175 162 160
13 13 17 25 27 25 28 30 25 19 17 20 23 30 70 94 84 66 52 47 49 49 45 40 39 38 44 59 67 46 43 53 51 41 34 27 28 36 46 47 40 29 23 20 10 355 358 358 349 342 340 337 334 332 331 328 325 323 320 316 314 311 306 306 313 317 315 312 306 296 290 289 287 289 288 278 261 237 212 202 197 189 181 173 167
9 6 3 357 357 10 20 19 15 12 6 9 24 23 16 27 51 63 72 64 50 46 43 38 33 26 26 40 59 57 44 41 40 33 24 24 34 34 19 17 28 30 24 11 347 345 0 358 346 341 339 336 333 333 331 327 323 322 320 317 314 310 307 309 314 316 317 319 316 308 302 301 301 297 288 272 245 208 186 182 181 179 174 161 150
3 6 5 350 340 357 17 10 3 4 3 5 17 22 19 16 9 10 40 100 78 67 63 43 29 21 18 20 33 38 26 23 31 28 19 22 30 10 351 344 346 15 11 351 334 346 355 348 339 337 334 330 329 327 322 319 318 317 315 313 311 308 309 312 314 316 319 323 324 322 317 311 308 301 288 268 234 200 180 170 169 168 159 148 143
343 344 352 347 343 357 11 3 355 355 355 359 7 11 15 18 7 6 15 10 350 19 125 95 49 31 22 19 23 24 15 19 34 37 30 31 30 12 4 5 5 357 350 342 343 353 352 343 339 340 336 332 331 327 322 321 319 314 313 316 316 313 315 320 324 329 334 333 329 328 326 321 315 303 286 265 233 202 176 160 157 155 150 147 146
323 307 304 315 332 352 5 359 351 348 347 355 9 11 5 3 0 358 2 1 352 346 28 93 71 45 32 29 26 22 21 35 50 50 46 45 35 17 10 9 5 358 354 352 353 353 346 341 343 342 338 336 335 332 329 326 322 318 318 322 323 323 326 327 325 328 335 336 333 332 329 327 322 303 272 228 180 159 135 129 134 139 146 152 152
303 314 320 321 327 337 344 349 357 359 349 331 345 357 346 350 356 348 344 353 348 334 341 36 48 30 30 30 22 13 10 25 45 41 33 31 25 14 6 2 359 356 354 356 358 354 346 346 347 344 341 341 338 336 335 333 328 326 327 326 323 325 333 335 332 334 342 351 357 1 4 12 30 80 113 107 98 89 85 87 94 105 113 117 121
263 302 338 337 329 325 322 311 345 353 309 275 295 343 345 342 348 340 336 351 349 327 335 11 16 351 346 0 0 349 331 318 320 353 5 10 12 9 4 3 1 359 358 359 1 358 351 351 353 350 347 348 345 343 343 340 335 333 333 330 328 333 346 356 360 6 18 27 32 41 58 74 84 94 100 98 93 88 83 78 76 84 90 80 66
232 236 345 350 326 317 325 333 299 261 272 284 303 336 341 338 342 338 337 352 355 337 334 344 352 351 346 341 339 336 330 332 350 10 11 14 13 9 11 11 7 5 5 4 4 4 0 359 359 357 356 356 354 352 350 348 344 343 342 343 348 0 13 17 19 27 41 49 58 74 84 86 85 87 88 86 82 81 81 78 77 81 78 44 21
209 181 140 19 327 295 297 298 270 232 231 260 267 268 295 324 333 336 344 353 349 330 328 329 337 359 355 348 349 349 346 359 30 29 18 18 15 12 18 18 12 13 16 13 12 13 10 7 6 5 5 5 2 1 1 358 356 358 3 8 15 23 28 33 41 53 59 61 69 81 85 82 80 82 80 76 73 74 75 77 76 74 62 38 25
214 186 184 235 285 270 261 264 265 275 278 262 252 250 266 292 304 316 335 348 287 216 270 299 247 24 12 14 28 10 350 357 33 36 30 35 30 24 24 22 21 25 25 22 23 21 17 17 18 16 15 14 10 9 12 12 12 17 24 30 37 43 49 58 65 67 67 68 72 80 82 80 82 85 80 73 69 66 64 63 63 64 71 71 58
235 223 216 237 259 268 276 287 286 235 237 238 228 227 230 225 260 304 318 321 300 219 161 209 190 118 65 48 36 7 6 33 59 50 44 43 35 30 29 26 27 30 26 22 24 23 21 24 25 23 22 20 13 11 16 22 28 37 44 50 56 63 68 71 71 70 72 74 75 74 71 71 76 80 77 71 69 67 61 55 50 49 59 68 65
235 239 241 259 274 282 295 302 290 266 254 270 179 206 238 242 251 285 291 303 325 152 151 179 179 117 95 77 50 34 48 68 68 56 51 47 40 37 35 27 25 27 24 22 23 23 23 26 26 20 17 17 15 14 17 23 31 42 52 57 59 62 64 67 67 66 67 68 67 67 67 70 72 71 68 65 64 62 57 51 47 50 56 60 61
236 242 241 253 280 288 293 298 293 298 45 17 317 255 253 256 254 274 298 321 52 116 125 99 78 85 83 69 57 56 63 67 65 61 58 53 48 46 43 37 35 34 31 28 27 27 27 25 22 18 15 16 20 24 26 29 35 44 54 60 60 59 60 61 61 61 60 59 60 63 64 64 61 59 59 58 52 47 47 45 44 50 53 52 56
239 251 251 252 278 288 291 301 297 263 159 230 241 232 235 249 254 278 305 314 131 138 116 83 72 71 72 67 65 66 68 70 72 72 65 58 57 58 56 52 48 45 43 40 38 38 37 29 23 23 25 27 32 38 41 44 46 49 58 65 65 61 60 61 63 63 59 55 56 56 50 45 44 44 45 43 39 40 45 43 41 48 47 39 45
260 270 270 271 286 295 303 324 318 301 300 299 265 243 233 233 247 280 309 315 201 170 141 111 94 84 81 79 77 75 75 79 83 80 71 66 66 66 63 58 53 50 50 47 41 40 42 39 33 31 31 34 38 40 41 44 45 45 51 57 60 63 65 63 59 59 54 48 48 48 43 41 44 41 34 28 31 45 56 53 44 47 47 40 44
267 259 269 276 291 298 301 313 312 301 306 313 296 277 255 223 234 265 289 202 178 180 160 129 112 101 92 90 88 86 86 90 91 85 75 72 71 62 53 47 44 44 48 48 41 38 39 39 38 37 37 39 40 36 33 35 35 35 38 42 53 78 89 76 55 46 45 41 38 38 36 38 42 40 33 30 36 49 57 55 49 45 45 48 49
253 250 262 269 278 287 290 286 260 262 280 332 307 258 234 223 229 231 210 186 177 173 167 149 132 125 118 110 104 99 97 97 97 91 81 73 65 54 43 38 36 38 43 45 41 37 36 35 38 39 38 38 39 36 31 30 31 31 36 43 53 76 90 84 72 68 62 48 40 38 39 39 40 40 40 40 44 48 48 45 44 40 37 41 46
256 250 252 256 261 274 288 290 268 254 240 108 201 222 211 217 223 212 203 208 197 177 174 169 154 144 140 130 121 116 112 107 99 93 85 70 59 55 52 47 44 43 44 44 41 38 35 34 38 44 43 41 40 38 36 38 38 38 44 51 53 63 82 94 96 89 68 49 42 46 48 45 43 46 46 43 41 44 44 39 37 38 37 37 37
257 248 244 246 251 260 275 286 280 267 169 130 187 221 211 215 222 212 204 213 203 181 173 174 169 160 153 145 134 121 115 111 107 102 97 81 64 63 62 55 51 48 47 46 43 39 38 38 43 45 46 45 43 39 35 38 44 46 54 65 68 75 93 104 101 85 68 59 55 51 45 39 34 34 34 29 26 31 34 25 18 20 29 34 35
264 256 246 238 241 249 260 269 273 267 210 164 194 217 214 217 219 207 199 206 201 183 172 169 165 158 150 148 149 142 136 135 132 122 116 106 84 67 58 55 53 51 49 49 46 42 43 49 51 49 48 50 53 53 53 57 63 69 76 81 82 87 98 107 109 101 84 69 57 47 41 35 26 18 13 11 14 22 26 18 7 4 9 17 24
Height
767 771 775 778 781 785 789 793 797 800 803 806 807 808 810 811 812 812 813 815 816 817 819 821 822 824 825 826 827 828 829 829 830 830 830 831 831 831 831 831 832 833 834 835 836 837 838 839 841 842 843 844 845 847 848 849 850 849 849 850 850 852 852 851 853 858 861 862 863 864 866 869 870 871 873 873 874 875 876 877 877 877 878 878 878
766 770 774 778 781 785 788 792 797 801 804 806 806 808 809 810 811 812 813 814 816 817 819 821 823 824 825 826 827 828 828 829 829 830 830 830 830 830 831 831 832 833 834 835 836 837 838 839 840 841 843 843 845 846 847 848 849 848 848 849 851 852 851 850 852 857 860 862 863 863 865 867 868 869 871 871 872 873 874 875 875 875 876 877 876
766 770 774 778 782 785 789 793 797 801 803 805 806 807 809 810 811 812 813 814 815 817 819 821 823 824 825 826 826 827 828 828 829 829 830 830 830 830 831 832 832 833 834 835 836 836 837 838 839 840 841 843 844 845 846 848 847 846 847 849 850 851 850 849 851 854 858 861 862 862 863 866 866 866 868 869 870 871 872 873 874 874 875 875 875
768 771 774 778 782 786 791 794 797 800 802 803 805 806 808 809 810 811 812 814 815 817 819 821 822 823 825 825 826 827 827 828 828 829 829 830 830 831 831 832 832 833 834 835 835 836 837 838 838 839 840 842 843 844 845 847 845 844 847 849 849 850 851 850 850 852 855 858 860 860 860 863 865 864 865 867 869 870 871 871 872 872 873 873 873
766 769 773 778 783 786 791 796 798 799 800 801 803 805 807 808 809 811 812 814 815 817 819 820 822 823 824 825 826 826 827 828 828 829 829 830 830 831 832 832 833 833 834 834 835 836 837 837 838 839 840 841 842 843 844 845 844 844 847 848 849 850 851 851 851 852 853 855 857 858 857 859 862 863 863 864 866 868 869 869 870 870 871 871 871
764 766 770 776 782 787 793 798 799 799 800 802 803 804 806 808 809 811 813 814 816 817 819 820 821 822 823 824 825 826 827 827 828 828 829 830 830 831 832 832 833 834 834 834 835 836 837 837 838 839 840 841 842 843 843 844 844 844 846 847 848 850 851 852 852 852 852 852 853 855 856 857 859 861 862 862 863 864 866 867 867 868 868 869 869
766 764 766 773 781 788 793 796 797 797 799 801 803 805 806 808 810 812 814 815 816 818 819 820 821 821 822 823 824 825 826 827 828 829 829 830 831 831 832 833 833 834 835 834 835 836 837 838 838 839 840 841 842 843 844 845 845 844 846 847 847 848 850 852 853 853 853 853 852 853 854 856 857 859 860 860 861 862 862 863 864 864 865 866 867
769 767 768 773 781 787 790 792 793 795 798 800 802 804 806 809 811 812 813 815 816 817 818 820 821 821 822 823 823 824 826 826 827 828 829 829 831 832 833 833 834 835 835 835 836 837 837 838 839 839 840 841 842 844 844 845 846 846 846 847 847 847 849 851 852 852 853 853 853 853 853 855 856 857 858 858 858 859 860 860 860 861 862 862 864
771 771 772 775 779 783 786 789 792 794 797 799 801 803 806 809 811 812 813 815 816 817 818 820 821 821 822 823 824 825 826 826 826 828 828 829 830 832 833 834 834 835 836 836 837 838 838 839 839 839 840 840 842 843 844 845 846 846 847 848 848 848 849 850 851 851 851 852 852 852 853 853 854 855 856 856 856 857 858 859 859 859 860 860 860
770 773 774 775 777 781 784 788 791 795 797 799 801 803 806 809 810 812 813 815 816 817 818 820 821 822 823 824 825 825 825 826 827 829 829 829 830 831 833 834 834 835 836 836 837 838 838 839 839 840 840 841 842 843 844 845 846 846 847 848 848 849 850 850 850 851 851 850 850 851 851 851 852 853 854 856 856 857 857 858 858 858 858 858 858
770 773 775 776 778 781 785 788 792 796 797 799 801 803 806 808 810 812 814 815 816 817 819 820 821 823 824 825 825 826 826 828 829 829 830 830 830 831 832 834 834 835 836 836 837 838 838 839 839 840 841 842 842 843 844 844 845 846 847 847 848 849 849 850 851 850 850 850 850 850 850 850 851 852 853 854 856 856 857 858 858 857 857 857 857
770 773 775 777 779 782 786 790 793 795 797 799 800 802 805 808 810 812 814 816 817 818 820 821 822 823 825 825 826 827 828 829 829 830 831 831 832 832 832 833 834 835 835 835 836 837 838 839 839 840 841 841 842 843 843 844 845 846 846 847 848 848 849 850 850 851 851 851 850 850 850 850 850 851 852 853 854 855 856 856 856 856 856 855 855
771 774 776 778 781 784 787 790 792 794 796 798 800 802 805 808 810 812 814 816 818 819 820 821 823 824 826 826 827 828 829 829 830 831 831 832 833 833 833 833 834 835 835 835 835 835 836 837 839 839 840 841 842 843 843 844 844 845 846 847 847 848 849 849 850 850 851 851 851 851 851 851 851 851 852 852 853 853 854 854 854 854 854 853 853
776 777 779 781 784 786 788 791 794 795 797 798 800 803 805 808 811 813 815 816 818 819 821 823 825 826 826 826 827 828 829 830 830 831 832 832 833 833 833 833 834 834 835 835 836 836 836 837 838 839 840 841 842 842 843 843 844 845 846 846 847 847 848 849 849 850 850 851 851 851 852 852 851 851 851 852 852 852 852 852 852 852 852 850 850
781 782 784 785 786 788 790 792 796 798 799 800 802 804 807 809 812 815 816 818 819 821 822 824 826 828 827 827 827 828 829 830 830 831 831 832 832 833 833 834 834 835 835 835 836 836 837 838 839 839 840 840 841 841 842 843 843 844 845 845 846 847 847 848 848 849 850 850 850 850 851 851 850 850 850 850 851 851 850 850 850 850 849 848 847
787 787 788 789 790 792 793 795 798 801 802 803 804 807 810 811 813 816 818 820 821 822 824 825 827 829 829 828 828 829 830 830 830 831 831 831 832 833 834 834 834 834 835 836 836 836 837 838 838 839 839 839 840 840 841 842 843 844 844 844 845 845 846 846 847 848 848 849 849 849 849 848 848 848 848 849 849 849 849 849 848 848 847 845 844
793 793 793 794 795 797 798 799 801 803 804 806 807 810 812 814 816 818 819 821 822 823 825 826 827 829 830 829 829 829 830 830 831 831 831 831 832 832 833 834 834 835 835 836 836 836 837 837 838 838 838 838 839 840 840 841 842 843 843 843 843 844 844 845 845 845 846 846 846 846 845 845 846 846 846 847 847 847 847 846 845 845 844 843 842
799 798 799 800 801 801 801 802 804 806 807 809 811 813 814 817 819 820 821 822 822 824 826 826 826 828 830 830 830 830 830 830 831 831 831 832 832 832 833 833 834 835 835 836 836 836 837 837 838 838 838 838 839 839 840 841 841 842 842 842 842 842 842 842 842 842 843 843 842 842 842 842 843 843 843 844 844 844 844 842 842 843 841 840 841
804 804 805 806 806 806 806 806 808 810 811 812 814 816 817 819 821 822 823 823 824 825 827 828 827 828 830 831 830 830 830 830 831 831 831 832 832 832 833 833 834 835 835 835 836 836 836 837 837 838 838 838 838 838 839 839 840 840 840 840 840 840 839 839 839 839 840 841 841 841 840 840 840 840 840 840 840 840 840 839 839 839 837 835 837
811 811 811 811 810 810 810 810 811 813 815 816 817 818 820 821 822 823 824 825 826 827 828 829 829 830 831 831 831 831 831 831 832 832 832 832 832 833 834 834 834 835 835 835 836 836 835 835 836 837 838 838 838 838 838 839 839 839 839 839 839 838 837 837 837 837 838 839 839 838 838 837 838 837 836 836 836 836 835 835 835 835 834 832 832
818 817 817 815 814 814 814 814 815 816 818 819 820 821 822 822 824 824 825 827 828 829 830 831 831 832 832 832 832 832 832 832 833 833 833 833 833 833 834 834 834 835 836 836 836 836 836 835 836 837 837 837 838 839 838 838 838 838 838 838 838 837 836 835 835 836 836 836 836 835 835 835 835 835 834 834 833 832 831 831 831 831 831 830 830
823 822 821 820 819 818 818 819 820 820 820 821 824 825 825 825 826 826 828 829 829 830 831 832 833 833 833 833 833 833 833 833 833 833 833 833 834 834 834 834 835 836 836 836 836 836 836 836 836 836 836 836 837 838 837 837 837 836 836 836 835 835 834 833 833 834 834 834 833 833 832 832 831 830 830 829 830 830 828 825 826 827 827 828 828
826 825 824 824 823 822 822 822 823 823 823 825 827 828 827 827 828 828 829 830 831 831 832 832 833 833 833 833 833 833 833 833 834 834 834 834 834 834 834 834 835 836 836 836 836 836 836 835 835 835 835 835 835 836 836 835 835 834 834 833 833 832 831 830 831 831 831 831 831 830 829 828 827 826 825 825 826 827 824 821 821 823 824 825 825
827 826 826 826 825 826 826 825 826 826 827 828 829 829 829 829 829 830 830 830 831 831 832 832 832 832 833 833 834 834 834 834 835 835 835 835 835 835 835 835 835 835 836 836 836 836 835 835 835 835 834 834 834 834 834 834 834 833 832 831 831 830 829 828 828 828 828 828 828 827 826 825 824 824 823 822 822 821 820 820 820 821 822 823 822
829 829 829 828 828 829 829 829 829 829 830 831 831 831 831 831 831 831 831 831 831 831 831 831 831 831 832 833 834 834 835 835 836 836 836 836 836 836 836 836 836 836 836 836 836 836 835 835 835 834 833 833 833 832 832 832 831 831 830 830 829 828 827 826 825 825 825 825 825 824 823 822 822 821 820 820 819 818 817 818 819 819 820 820 820
831 831 831 831 831 831 831 831 831 832 832 832 832 832 832 832 832 832 831 831 832 831 832 832 831 832 832 833 833 834 835 836 836 837 837 837 837 836 836 836 836 836 836 836 836 835 835 834 834 833 832 832 831 830 830 829 829 829 828 827 827 826 825 825 824 823 823 822 822 821 820 819 819 818 817 816 816 816 816 816 816 817 817 818 819
833 833 833 833 833 833 833 833 833 833 833 833 833 833 833 833 833 832 832 832 832 831 832 832 832 832 832 833 833 834 834 836 837 837 838 838 837 837 837 836 836 836 836 836 836 835 834 833 832 831 830 830 830 829 828 828 827 827 826 825 825 824 824 824 823 823 823 822 821 820 819 819 817 816 816 815 814 814 815 815 816 815 816 817 819
836 835 835 835 835 835 835 835 835 834 835 835 835 835 835 834 834 834 834 834 833 833 833 833 833 833 833 833 833 833 834 836 837 838 838 838 837 837 837 837 837 836 836 835 834 833 832 831 830 830 829 829 828 828 827 827 826 826 825 825 824 824 824 823 823 822 822 822 822 821 820 819 818 816 815 814 814 814 814 815 816 815 815 816 818
838 837 837 837 837 836 836 836 836 835 836 836 837 837 837 836 836 837 836 836 835 835 835 835 836 836 835 835 835 835 835 837 838 838 838 838 837 837 837 837 836 836 835 834 833 832 831 831 831 830 829 829 828 828 827 827 826 826 826 825 825 824 824 823 822 821 822 822 822 821 821 819 818 817 815 814 813 813 813 814 815 815 815 815 816
839 839 839 839 839 838 837 837 837 837 837 836 837 838 838 838 838 838 838 838 837 837 837 837 837 837 837 838 838 838 838 839 839 839 839 838 838 837 837 836 836 835 834 834 832 832 831 831 831 830 829 829 829 828 828 828 827 827 826 826 826 825 824 823 822 821 821 822 821 821 821 820 819 817 815 814 812 812 812 812 813 814 814 814 814
839 839 840 840 840 839 839 839 838 838 838 837 837 837 838 838 838 838 838 838 838 838 837 837 837 837 837 838 839 839 839 839 839 839 839 838 838 838 837 837 836 835 834 833 832 832 831 831 831 830 830 830 829 829 829 828 828 827 827 826 826 825 824 823 822 821 821 821 820 820 820 819 818 816 815 813 812 811 811 810 811 813 813 813 814
839 839 839 839 839 839 839 839 839 839 838 838 837 837 837 837 837 838 838 838 838 837 837 837 837 837 837 837 838 839 839 839 839 838 838 838 838 837 837 836 836 835 834 833 832 832 832 832 831 831 830 830 830 829 829 829 829 828 827 826 826 825 824 823 822 821 821 820 819 819 818 817 816 815 814 813 811 811 811 810 811 812 813 814 814
842 841 840 839 839 838 838 839 839 839 838 838 837 837 837 836 836 836 837 837 837 837 837 837 837 837 836 837 837 837 838 838 838 837 837 837 837 836 836 836 835 834 834 833 832 832 831 832 832 831 831 831 831 831 830 830 830 829 829 828 827 825 824 823 822 821 821 820 819 818 817 817 816 815 814 814 812 811 811 811 812 812 813 813 813
844 843 842 841 840 838 839 839 839 839 839 838 838 838 838 838 837 836 836 836 837 836 836 837 836 836 837 837 837 837 838 838 838 838 838 837 837 836 835 835 834 834 833 833 833 832 832 832 832 831 831 831 832 832 831 831 830 830 829 828 827 826 825 823 822 821 820 820 819 818 817 817 816 815 815 814 813 812 812 812 813 813 813 814 814
845 845 844 843 841 840 841 841 841 840 840 839 839 839 839 839 839 838 837 837 837 836 836 836 836 837 837 838 838 839 839 839 838 838 838 838 837 836 835 834 834 834 834 834 834 834 834 834 833 833 833 832 832 832 831 831 830 829 828 827 827 826 825 824 823 822 821 820 820 819 818 817 816 816 815 815 814 814 813 813 814 815 815 815 815
846 846 845 844 843 842 843 844 844 843 842 841 841 841 841 840 840 839 839 839 838 837 836 836 837 838 838 838 839 839 839 839 839 839 838 838 838 837 836 836 836 835 835 835 836 836 836 836 835 835 834 834 833 832 832 831 830 829 828 827 826 826 825 824 823 822 821 821 820 819 818 817 817 816 816 816 816 816 815 815 815 816 817 817 817
847 846 846 845 845 844 844 845 846 845 845 844 844 843 842 841 841 841 840 840 840 839 838 838 839 839 839 839 839 840 840 839 839 839 839 839 839 838 838 838 838 838 837 837 837 838 838 837 836 836 835 834 834 833 832 831 830 829 828 828 827 826 825 824 823 822 821 821 820 820 819 819 818 817 817 816 816 817 817 816 816 817 817 818 818
847 847 847 846 846 845 844 844 846 846 846 846 844 844 843 842 842 842 841 841 841 841 840 839 840 841 841 841 842 841 840 839 839 840 840 840 840 840 840 840 840 839 839 839 839 839 838 837 837 837 836 835 834 833 832 832 831 829 829 828 827 826 825 824 823 823 822 822 822 821 821 820 820 819 819 818 818 818 819 819 819 819 819 819 820
847 847 848 847 847 846 845 844 845 846 846 846 845 845 845 844 843 843 842 842 842 843 842 842 842 843 844 844 843 842 841 839 840 841 842 842 842 842 842 842 842 841 841 841 840 840 839 838 838 837 836 835 834 833 832 832 831 830 829 828 827 826 825 825 825 825 824 824 824 823 823 822 822 822 822 821 822 822 822 822 822 822 821 822 822
847 847 848 848 848 847 846 845 845 845 845 846 846 845 845 845 845 844 844 844 845 845 845 845 845 845 846 845 844 843 842 841 842 843 843 844 844 843 843 843 843 842 842 841 841 840 840 839 838 837 836 836 835 834 833 832 831 830 829 829 828 828 827 827 827 827 827 827 826 825 825 824 824 824 824 824 824 824 824 824 824 823 823 823 823
846 846 848 848 847 847 845 844 844 844 845 845 846 846 846 847 846 846 845 846 846 846 847 847 847 847 847 847 846 845 844 843 844 844 844 845 845 844 844 844 843 843 842 842 841 841 840 839 839 838 837 836 836 835 834 833 832 831 831 830 830 830 829 829 829 829 829 829 828 828 827 827 827 826 826 826 826 826 825 825 825 825 824 824 824
846 846 846 846 846 845 844 843 843 844 844 845 845 846 847 847 847 847 847 847 847 847 847 848 847 847 848 848 847 846 845 845 845 845 845 845 845 844 844 844 843 843 843 842 842 841 841 840 840 839 838 837 836 836 835 834 833 833 832 832 832 831 831 831 831 831 830 830 830 830 830 829 829 828 828 828 828 827 827 827 827 826 826 825 825
846 845 845 845 845 844 844 844 843 843 844 844 845 846 847 847 847 847 847 847 847 847 847 847 847 847 847 848 847 846 846 846 846 846 846 845 845 845 844 844 844 843 843 843 842 842 842 841 841 840 839 838 838 837 836 836 835 835 834 834 833 833 833 833 833 832 832 832 832 832 831 831 831 830 830 829 829 829 828 828 828 827 827 827 826
845 845 845 845 845 844 843 844 844 843 844 844 845 846 846 847 847 847 846 846 847 848 847 847 847 847 847 847 847 847 847 847 846 846 846 846 846 846 845 845 844 844 844 843 843 842 842 842 842 841 840 839 839 838 838 837 837 836 836 835 835 835 834 834 834 834 834 833 833 833 833 833 832 832 831 831 830 829 829 829 829 828 828 828 827
845 845 844 844 844 843 843 843 843 843 843 844 844 845 846 846 847 847 846 846 847 847 848 848 848 848 848 848 847 847 847 847 847 847 847 847 847 847 846 846 846 845 845 844 843 843 843 843 843 842 842 841 841 840 840 839 838 838 837 837 837 836 836 836 835 835 835 835 834 834 834 834 833 832 832 831 831 830 830 830 830 830 829 829 828
844 845 844 843 843 842 842 842 843 842 841 841 842 843 844 846 847 847 847 847 847 848 848 848 848 848 848 848 848 848 848 848 848 848 848 848 848 847 847 847 846 846 846 845 845 844 844 844 844 844 843 843 842 842 842 841 840 840 839 838 838 837 837 837 837 837 836 836 835 835 835 834 834 833 833 832 832 832 832 832 831 831 830 829 829
843 844 844 843 842 842 842 842 842 842 841 841 843 844 845 846 847 847 848 848 848 848 848 848 848 848 849 848 849 848 848 849 849 849 848 848 848 848 848 848 847 847 847 846 846 846 846 845 845 845 844 844 844 843 843 842 842 841 841 839 838 838 838 838 838 838 837 837 837 836 836 835 835 834 834 834 833 833 833 832 832 831 830 829 829
843 843 843 843 842 842 841 841 841 841 841 842 844 846 846 847 847 848 848 848 848 848 848 848 848 848 849 849 849 849 849 849 849 849 849 849 849 849 848 848 848 848 848 847 847 847 846 846 846 846 845 845 844 844 844 843 843 842 841 840 839 839 838 838 839 839 839 838 838 838 837 837 837 836 836 835 834 834 833 833 832 831 830 830 830
842 843 843 843 842 842 840 840 840 840 840 842 845 846 847 847 847 847 848 848 847 848 848 848 848 849 849 849 849 849 849 849 849 849 849 849 849 849 849 848 848 848 848 848 848 848 847 847 846 846 846 846 845 845 844 843 843 842 841 841 840 840 840 839 839 839 839 839 839 839 838 838 838 837 837 836 836 835 834 834 833 832 832 831 831
841 841 842 842 842 842 841 840 840 839 840 843 845 846 846 847 847 847 847 847 847 847 848 848 848 849 849 849 849 849 850 850 850 850 850 849 850 850 850 849 849 849 849 849 848 848 848 847 847 846 846 846 846 845 844 843 843 842 842 841 841 841 841 840 841 840 840 840 840 840 839 839 838 838 838 837 836 836 835 834 834 833 833 832 832
840 840 841 841 842 841 841 841 840 840 840 842 844 845 846 847 847 847 847 847 847 847 848 848 848 848 849 849 850 850 850 850 850 850 850 850 850 850 850 850 850 849 849 849 849 848 848 848 847 847 847 846 846 845 845 844 843 843 843 842 842 842 842 842 842 841 841 841 841 840 840 840 839 839 838 837 837 836 836 835 835 834 834 833 833